Wind_Speed
26 25 24 25 24 25 23 23 23 21 20 20 18 18 16 15 15 15 14 13 12 11 10 10 9 9 9 9 9 10 11 12 14 16 17 18 19 18 18 17 16 14 12 11 9 8 7 6 6 5 5 5 5 5 5 5 6 7 7 7 7 7 6
28 27 26 25 25 26 25 25 24 22 22 21 20 19 18 17 17 16 16 15 14 13 12 11 10 9 9 9 10 11 11 11 13 15 16 17 18 19 19 18 17 16 15 13 12 10 10 9 9 8 8 7 7 7 7 7 7 7 7 6 6 6 5
30 28 27 27 26 26 26 26 25 24 23 22 21 21 20 19 18 17 16 16 16 15 13 12 11 10 10 10 11 11 12 12 12 13 15 16 18 19 19 19 18 17 16 15 14 13 13 12 11 11 10 10 9 9 9 8 8 7 7 6 5 4 3
33 30 28 28 27 27 27 25 25 25 24 24 23 23 22 20 19 18 17 17 17 17 16 14 13 12 11 11 11 12 12 13 12 12 13 15 17 18 19 19 19 19 18 17 16 16 15 15 15 14 13 12 11 11 10 9 8 7 6 5 4 2 1
32 31 29 29 28 29 28 26 25 25 25 24 24 24 23 21 21 21 20 18 18 18 17 16 15 14 13 12 12 12 12 13 13 13 13 13 14 16 17 18 18 18 18 18 17 16 16 15 16 15 14 13 11 10 9 7 6 5 5 3 3 2 1
26 24 25 29 29 29 29 27 26 25 25 25 25 25 24 23 23 22 21 20 19 18 18 17 17 16 15 14 13 13 12 12 13 13 13 13 13 13 14 15 14 15 16 15 15 14 13 13 13 13 12 11 9 8 7 6 5 4 3 2 2 2 2
21 20 20 26 31 31 29 29 28 27 27 26 26 26 25 24 24 24 23 22 21 20 19 19 18 18 17 16 15 14 13 13 13 13 14 14 13 14 14 13 13 13 13 12 13 12 11 11 10 10 10 9 8 7 7 6 5 4 4 3 3 2 2
17 18 17 22 31 33 31 29 30 29 28 27 27 26 25 25 26 26 24 24 23 22 21 20 19 19 18 17 17 16 15 15 14 14 14 14 14 15 14 14 13 13 12 12 11 11 11 10 10 9 9 8 8 8 7 6 5 5 5 5 4 3 3
16 16 15 17 25 31 32 30 30 30 28 26 27 28 27 26 26 25 25 25 25 24 23 22 21 20 19 19 18 18 18 17 16 16 15 15 15 14 14 14 14 13 13 13 12 12 11 10 10 10 9 9 9 8 8 7 7 6 6 6 6 5 5
16 17 16 16 19 24 28 30 30 31 29 26 27 28 27 27 26 25 25 26 26 26 25 24 23 22 21 20 20 19 19 19 19 18 17 17 16 16 15 15 14 14 14 13 13 13 12 12 12 11 11 10 10 9 9 9 8 8 8 8 8 8 7
17 17 17 18 18 20 23 26 28 29 28 28 29 28 27 27 26 25 25 25 26 27 26 25 25 24 23 22 22 21 20 20 20 20 19 19 18 18 17 16 15 15 15 14 13 13 14 14 13 13 12 12 11 11 11 11 10 10 10 10 10 10 10
13 15 16 18 19 20 20 23 25 27 28 30 30 28 28 28 26 25 25 24 25 27 26 26 26 26 25 24 24 23 22 22 21 21 20 20 20 20 19 19 18 18 16 15 15 15 15 15 14 15 14 13 13 13 12 13 12 12 11 11 11 11 11
10 12 14 16 19 20 19 21 24 26 28 30 30 30 29 29 27 25 23 23 25 26 26 26 27 27 26 26 25 24 24 24 23 22 22 21 21 20 21 21 20 19 18 17 16 16 16 16 16 16 15 14 15 14 14 14 13 13 12 12 12 12 12
11 10 11 13 16 19 19 21 24 25 26 28 30 31 30 29 28 24 22 23 25 26 26 26 27 27 27 26 26 26 26 25 25 24 23 23 22 21 21 21 21 21 20 19 19 19 18 18 18 16 15 16 17 16 15 15 14 13 13 13 12 12 12
12 11 9 10 13 15 18 21 22 21 22 24 28 31 31 29 28 26 25 26 26 26 26 27 27 27 25 25 26 27 27 27 26 26 25 25 24 23 23 23 22 22 21 21 21 21 20 20 20 19 19 19 19 18 17 17 16 15 14 14 14 13 13
11 12 11 10 11 12 15 18 19 18 20 21 25 31 33 33 31 30 29 29 29 28 28 28 27 26 25 25 26 27 28 28 28 27 26 26 26 26 26 25 24 23 23 22 22 22 21 22 21 22 22 21 21 21 20 19 19 18 17 16 16 15 14
12 13 13 12 11 11 12 16 17 17 19 21 22 26 31 36 36 33 30 29 30 30 30 30 29 27 28 28 27 26 27 28 29 29 28 28 27 26 27 27 27 26 25 24 23 23 23 23 23 23 23 23 23 24 23 21 21 20 20 19 19 18 17
14 14 14 14 14 12 11 13 14 15 16 17 18 19 23 29 34 33 30 30 32 32 32 32 32 31 30 29 28 27 26 26 28 28 27 26 25 25 26 26 25 25 25 25 25 25 23 23 23 24 23 23 25 25 23 22 22 22 22 22 21 20 20
16 16 16 15 15 15 15 14 15 15 15 15 15 15 17 21 27 29 29 30 32 35 35 34 34 35 34 32 31 30 28 27 28 28 27 25 25 26 26 25 25 25 25 26 27 26 25 25 25 24 23 23 25 24 22 22 23 23 23 23 22 21 22
18 17 17 16 16 16 16 16 16 16 16 16 16 15 16 18 21 23 23 22 24 28 32 34 35 38 37 34 33 33 31 31 32 31 30 29 29 29 27 26 27 28 28 29 29 29 28 27 26 25 25 26 26 23 22 24 26 25 25 25 24 23 23
19 19 19 19 19 18 16 16 15 15 16 17 18 18 18 19 19 19 18 17 16 18 22 28 33 38 40 37 34 34 34 33 34 34 32 32 31 30 30 31 30 30 30 30 30 31 30 29 27 25 26 28 28 24 23 24 27 27 26 26 26 25 25
22 20 20 20 20 20 19 17 16 16 16 17 17 18 19 19 19 18 16 16 16 16 18 21 25 31 37 39 38 37 36 35 36 35 34 32 30 27 28 32 33 32 32 32 32 32 32 30 29 28 29 30 30 27 25 25 26 27 27 26 26 26 26
25 24 22 21 21 21 21 20 19 19 19 18 18 18 18 18 19 19 19 18 16 15 17 19 19 22 28 33 36 38 39 39 39 39 38 36 32 29 28 32 35 35 33 32 32 32 32 31 31 30 31 31 31 29 28 28 28 29 29 29 29 28 27
29 28 26 25 24 23 23 23 23 22 21 21 21 20 20 20 20 21 21 21 20 19 19 19 18 19 21 22 25 31 39 42 41 41 42 40 37 35 32 32 35 36 34 33 32 32 32 32 32 31 30 31 31 31 31 31 32 32 32 33 32 31 30
32 31 30 29 28 27 27 26 26 25 24 24 24 24 23 23 23 23 23 23 25 26 26 24 22 22 20 17 18 23 32 40 43 42 41 41 40 40 37 35 36 37 36 34 33 33 33 33 33 32 32 32 33 34 34 34 35 36 35 35 34 34 32
31 31 31 32 32 31 31 30 30 29 29 28 27 27 27 26 25 24 24 26 29 30 31 30 29 28 25 22 22 23 24 28 36 38 38 39 41 42 40 37 39 40 38 37 35 34 35 36 36 35 36 36 36 37 37 36 36 37 36 35 35 35 33
30 30 30 31 32 34 34 34 33 33 32 32 31 31 30 29 28 27 25 27 29 31 31 31 31 31 31 29 29 29 25 22 23 26 29 32 36 39 40 40 40 40 39 38 38 35 35 37 39 39 40 39 38 38 39 38 37 38 38 35 32 32 33
30 30 30 29 30 32 33 33 34 33 32 32 33 33 33 32 31 30 29 28 28 28 28 28 27 29 31 32 33 33 31 27 25 24 25 25 27 30 34 37 40 41 41 40 40 39 38 39 40 42 42 39 37 37 39 39 38 36 36 35 32 30 31
30 31 31 30 29 28 29 30 31 32 32 31 31 32 33 33 32 32 32 30 29 28 27 26 25 26 28 30 30 30 29 28 27 27 27 27 27 27 26 27 30 35 40 44 43 42 41 41 42 44 45 43 40 38 39 41 41 38 35 36 37 36 35
30 30 30 29 28 27 27 27 28 29 30 31 31 31 32 33 32 31 31 32 31 31 29 27 26 25 26 26 25 24 23 24 25 25 25 25 27 27 28 28 27 28 32 40 46 47 45 43 43 45 49 51 49 46 43 44 46 44 41 39 40 41 41
28 28 27 27 27 27 27 26 26 26 27 29 30 31 31 31 31 30 31 31 32 32 31 29 28 26 25 24 22 21 20 21 22 22 21 22 23 23 25 27 26 25 26 32 40 42 37 33 31 34 40 46 50 51 50 50 49 48 46 45 44 44 45
27 27 27 27 27 27 27 26 26 26 27 28 29 30 30 30 30 31 31 32 33 33 33 31 29 26 25 24 23 21 20 20 20 20 20 21 22 22 23 23 23 22 22 24 28 28 24 22 23 24 27 32 37 40 42 43 43 42 42 42 40 38 39
25 26 27 27 28 28 28 28 28 27 28 28 28 29 30 30 29 30 30 31 32 33 34 34 32 29 28 26 25 24 22 21 20 21 21 21 22 23 24 24 24 23 23 25 27 27 27 27 28 28 28 28 29 30 30 30 31 31 32 32 30 29 29
26 27 27 28 29 30 30 30 30 30 29 29 29 30 30 30 30 30 30 30 31 32 33 34 34 33 32 31 30 29 27 26 25 24 24 24 24 25 25 26 26 27 27 29 30 30 31 31 31 32 32 32 33 33 31 29 30 30 30 30 30 29 29
29 29 29 29 30 30 31 31 32 31 31 31 32 32 32 32 33 33 32 32 32 32 32 33 34 34 35 35 34 33 32 32 31 30 29 29 29 29 29 28 29 29 30 31 31 31 31 31 32 32 32 32 33 33 30 28 28 29 29 30 30 30 29
28 28 29 30 30 30 29 30 31 33 33 33 33 34 35 35 35 35 35 34 34 33 33 32 32 33 34 35 36 36 36 35 34 33 32 31 32 32 32 31 31 31 32 32 32 31 32 32 32 32 32 33 33 33 32 29 28 29 30 30 31 31 31
28 26 26 28 30 32 31 30 30 32 34 35 35 36 37 37 37 36 36 36 36 35 35 34 34 34 34 34 35 36 37 37 37 36 34 32 32 33 33 33 34 34 34 34 34 33 33 34 34 34 34 35 36 36 36 35 34 34 34 35 35 36 36
31 30 30 29 29 30 31 31 31 31 32 33 34 35 36 37 37 37 37 37 37 37 37 36 35 35 35 35 35 35 36 37 38 39 38 36 35 34 35 35 36 37 37 37 37 37 36 36 36 36 37 37 38 39 40 40 40 40 40 41 42 42 42
Wind_Direction
206 209 211 211 211 210 208 212 212 208 207 205 205 211 211 207 205 206 206 205 206 205 197 191 189 189 189 187 186 185 186 193 198 199 199 200 202 203 205 207 210 212 214 218 221 226 232 239 247 255 263 270 278 288 297 308 315 320 322 324 328 328 336
207 208 211 212 214 213 211 213 214 210 208 205 204 210 215 213 208 207 207 207 207 208 205 199 195 193 193 191 194 193 189 194 201 205 207 209 210 212 215 218 221 224 227 231 236 241 245 250 255 258 263 266 270 276 284 293 301 307 311 316 323 324 333
210 209 211 212 214 216 214 215 214 211 209 205 202 208 215 216 213 210 210 211 211 209 207 206 202 199 199 197 198 198 195 196 200 204 210 216 219 221 222 224 227 231 235 240 245 249 253 257 260 260 262 264 268 273 279 286 290 293 298 305 313 317 332
215 217 219 215 212 215 216 215 214 212 211 207 202 206 212 215 217 216 215 215 215 213 208 207 207 206 206 204 203 202 200 200 201 202 208 216 222 225 228 231 233 235 240 244 247 251 255 259 260 260 261 263 266 270 275 279 281 284 291 296 301 311 340
220 225 230 225 216 214 216 216 214 213 212 208 205 206 211 215 218 219 217 217 218 218 214 210 208 210 213 212 210 209 206 204 204 205 209 215 219 224 229 233 235 238 241 245 248 251 253 256 258 258 258 259 261 264 266 268 271 278 286 289 297 314 330
214 221 229 228 219 214 216 216 215 216 214 210 208 208 210 215 219 219 218 218 220 221 220 216 210 210 214 216 217 216 213 212 209 207 212 216 216 219 225 229 232 236 239 241 242 246 247 249 251 251 249 249 248 249 250 250 253 259 265 268 275 295 306
205 210 220 224 219 214 215 215 215 217 215 212 211 212 213 216 219 219 220 221 222 222 223 223 218 214 213 216 220 220 218 219 218 215 217 219 218 219 222 226 229 232 236 237 236 237 237 238 241 240 239 238 236 235 237 237 238 240 243 244 245 258 277
209 210 213 219 218 214 212 214 215 217 218 214 212 213 214 217 219 220 222 225 225 224 224 225 225 222 218 216 219 221 221 222 223 222 222 223 223 223 224 227 229 231 234 236 234 233 231 231 235 235 233 234 234 234 234 234 237 239 242 244 248 257 269
218 218 214 210 212 213 212 213 213 215 217 215 213 216 217 218 220 222 224 227 228 227 227 227 227 228 226 223 220 221 222 222 223 225 227 229 229 229 229 228 229 232 236 238 238 238 235 233 236 238 236 236 239 240 240 240 242 245 247 250 254 257 265
212 219 217 205 206 211 213 214 215 216 217 214 214 220 221 221 222 224 226 229 230 229 229 230 230 229 230 229 227 225 225 224 223 223 226 230 233 234 234 232 233 235 237 239 243 246 245 242 241 244 244 243 245 247 248 250 251 253 254 258 262 263 267
208 214 214 207 208 211 212 215 219 221 220 216 217 220 220 220 223 224 222 225 230 229 229 232 234 233 232 232 232 231 231 230 228 226 225 226 230 234 237 238 237 237 236 236 241 245 248 249 248 248 248 248 249 249 251 255 258 261 263 265 268 270 270
206 213 212 209 213 215 215 218 220 221 220 220 219 218 218 218 220 221 220 223 230 231 229 231 234 236 236 235 235 235 236 236 235 234 231 228 228 231 235 238 238 238 238 237 239 241 245 249 250 251 251 251 251 251 253 257 259 260 263 267 270 271 271
201 208 212 214 216 216 218 221 217 215 217 220 219 217 217 216 216 219 220 226 235 235 230 231 234 237 239 239 240 240 240 240 240 240 240 238 235 233 234 237 239 241 241 241 243 244 244 247 250 252 253 254 255 255 255 257 258 260 262 265 267 268 270
217 212 211 217 218 213 216 220 215 210 213 217 217 216 214 214 218 222 220 224 235 238 233 231 232 234 237 239 242 245 246 245 244 243 245 245 245 243 241 241 241 242 243 243 244 245 245 247 250 252 252 254 256 255 255 256 257 259 262 264 266 267 267
227 227 221 220 217 212 212 211 206 203 211 217 217 213 212 216 222 225 224 226 234 237 236 234 232 233 236 238 241 242 245 248 248 247 247 248 249 249 249 248 246 246 245 244 244 246 247 249 250 250 250 253 254 253 254 256 256 257 259 262 266 267 264
230 231 231 219 207 203 202 199 193 194 206 217 218 214 218 224 225 223 226 231 234 235 236 238 239 239 240 240 240 240 242 246 248 249 249 249 249 249 249 250 250 250 249 247 246 246 247 248 248 249 250 251 253 254 254 254 255 257 257 258 263 266 265
233 229 227 217 207 199 193 191 187 186 193 203 212 217 223 227 224 222 226 231 233 234 237 240 240 239 237 239 242 245 245 246 247 247 247 247 247 247 248 248 250 251 252 252 252 250 249 249 248 248 249 250 250 251 253 254 256 258 258 257 259 261 262
234 231 227 224 225 225 216 202 193 188 189 196 209 219 224 225 224 225 229 233 233 233 234 237 239 237 235 236 241 243 242 245 249 248 245 245 245 245 247 249 250 253 255 255 254 253 252 253 252 251 253 255 256 258 260 261 261 260 260 259 259 259 259
229 231 231 231 233 234 233 226 214 207 204 204 210 215 215 217 218 223 229 234 235 233 230 232 236 238 237 235 236 237 234 237 242 241 239 241 242 243 245 248 249 251 251 251 251 250 248 249 251 251 252 255 257 260 263 263 261 259 258 258 258 256 256
225 227 228 229 231 231 230 228 225 222 220 219 220 218 216 215 217 221 228 233 235 234 231 229 232 236 238 236 235 234 233 234 235 235 237 239 240 241 242 242 244 246 248 250 251 251 251 251 252 254 255 254 253 253 255 258 259 258 256 255 255 253 252
225 227 228 227 230 231 231 228 225 225 226 227 228 228 227 227 227 230 236 241 242 240 236 233 233 235 238 238 237 236 236 237 236 236 238 238 238 240 241 239 239 242 245 247 249 251 252 253 253 256 258 256 253 252 253 255 258 260 259 257 256 255 253
227 229 230 230 231 232 235 235 232 232 233 235 235 235 237 239 239 242 246 251 252 252 250 246 242 240 239 237 238 237 237 238 238 237 237 235 234 238 239 238 239 240 241 244 247 249 250 251 253 255 256 256 254 254 254 254 257 259 260 259 259 259 259
230 231 231 234 235 236 239 240 240 242 244 246 248 248 248 250 251 250 251 253 254 256 259 257 252 250 245 240 240 242 242 242 241 239 237 236 236 239 240 239 239 240 240 242 246 248 249 250 251 253 255 256 257 258 256 255 256 258 259 259 260 261 261
232 233 234 237 237 239 242 244 245 247 249 252 256 259 260 260 259 259 259 259 257 254 256 257 253 252 249 243 245 250 249 246 245 243 241 239 240 242 241 239 241 243 244 245 247 249 250 250 251 252 255 258 259 259 258 257 257 258 258 258 259 259 258
236 237 240 243 243 243 245 247 248 250 251 254 257 260 264 265 264 264 265 265 264 261 259 258 256 256 255 254 261 266 257 248 244 244 242 242 243 245 243 240 241 244 247 247 248 251 252 253 253 253 255 258 258 257 256 256 257 258 258 258 258 258 258
243 244 245 248 249 251 251 251 252 253 255 256 258 259 263 265 267 267 266 266 268 270 269 266 264 264 266 267 272 279 273 255 244 244 247 250 250 249 248 245 242 244 247 248 248 251 253 253 253 254 254 255 256 256 255 254 256 258 259 261 261 259 258
248 250 251 250 251 253 254 255 255 255 255 256 258 259 261 263 265 267 268 267 268 272 274 274 272 271 272 272 271 273 276 271 259 257 261 262 257 252 250 248 245 244 245 246 247 248 249 249 249 250 253 253 254 256 256 255 257 258 259 262 266 263 259
248 250 252 252 252 252 253 254 255 255 254 254 254 256 257 259 260 262 265 266 267 269 272 273 273 272 273 275 274 273 276 279 280 280 279 277 270 261 254 251 249 246 245 245 247 247 247 249 248 248 250 252 251 252 253 254 258 260 257 258 264 265 261
245 247 249 250 251 251 251 251 252 252 252 251 249 249 251 253 255 257 260 262 263 265 267 267 268 269 271 273 275 277 279 281 281 281 279 277 276 273 268 265 261 255 248 246 247 248 248 250 252 251 251 253 254 255 253 253 257 261 260 258 259 263 265
240 242 244 246 247 247 248 249 250 250 250 249 248 246 246 248 249 250 252 254 257 260 262 264 267 268 268 270 272 273 274 274 274 274 275 274 274 274 274 275 275 271 260 250 248 250 253 256 256 255 254 256 258 259 258 256 258 261 262 261 261 264 267
241 239 240 242 243 244 246 247 248 249 249 247 246 244 244 245 244 243 243 245 250 255 259 263 265 266 265 265 264 263 263 263 265 267 267 267 267 267 269 270 270 274 271 257 248 248 254 260 261 260 259 259 260 259 257 256 258 260 262 264 264 264 264
244 244 246 247 246 247 247 247 248 249 249 248 247 245 243 242 242 241 241 242 245 250 254 258 260 260 260 259 258 258 257 256 258 259 258 256 255 254 256 258 258 258 258 251 245 246 254 263 268 269 267 263 260 258 255 253 252 253 256 257 256 254 253
248 249 250 250 249 249 247 246 247 247 248 249 248 246 244 244 243 243 243 243 245 246 249 252 254 256 257 257 256 255 255 256 257 257 256 255 253 251 250 250 249 246 243 242 245 250 257 261 263 264 264 262 261 262 261 258 255 254 254 253 251 250 252
254 253 252 251 251 251 249 248 247 247 248 249 247 245 244 243 242 243 243 244 245 246 247 248 250 253 255 257 258 257 257 259 261 262 262 262 260 259 257 256 254 252 249 249 251 254 257 258 258 258 258 258 261 263 265 266 265 265 264 262 261 261 261
257 257 255 253 253 253 252 250 248 247 248 248 246 244 243 241 240 241 242 243 244 246 248 248 249 251 253 255 258 260 261 263 264 264 264 266 266 266 265 264 262 260 258 258 259 260 260 260 259 258 258 259 260 261 262 263 264 264 264 263 262 261 261
258 257 254 251 249 248 248 249 249 248 247 246 245 243 242 241 241 241 242 243 244 246 248 249 250 251 252 253 256 259 262 265 267 266 265 264 265 266 266 266 265 265 264 264 264 264 264 264 263 262 262 263 264 263 263 264 263 264 264 263 263 263 262
256 255 255 254 249 247 247 250 251 250 247 244 242 241 240 240 241 241 243 245 247 248 250 251 251 252 253 253 254 256 259 263 266 268 268 265 263 264 265 265 265 265 265 265 265 265 265 265 265 265 265 265 266 266 267 267 266 266 266 266 266 265 265
255 254 257 257 253 249 247 247 249 251 249 245 243 242 242 241 242 243 245 246 248 250 252 252 253 253 253 254 254 255 256 258 261 264 266 267 266 264 264 265 266 267 267 267 267 266 266 265 265 265 265 265 265 266 267 267 267 267 267 267 268 268 268
Height
5906 5908 5909 5911 5912 5914 5916 5917 5919 5920 5922 5924 5925 5927 5929 5930 5932 5935 5936 5937 5939 5940 5941 5942 5943 5945 5945 5946 5947 5947 5948 5949 5951 5952 5953 5955 5956 5957 5958 5959 5960 5961 5962 5963 5965 5966 5966 5967 5968 5969 5969 5969 5970 5970 5970 5970 5970 5970 5970 5970 5969 5969 5969
5904 5906 5908 5909 5911 5913 5914 5916 5917 5919 5921 5923 5924 5926 5927 5929 5931 5933 5935 5936 5938 5939 5941 5942 5943 5944 5945 5946 5947 5948 5948 5949 5950 5952 5953 5954 5956 5957 5958 5959 5960 5961 5962 5963 5964 5965 5966 5967 5967 5968 5969 5969 5969 5970 5970 5970 5969 5969 5970 5970 5970 5969 5969
5902 5904 5906 5907 5909 5911 5913 5915 5916 5918 5920 5921 5923 5925 5926 5928 5930 5932 5934 5935 5937 5939 5940 5942 5943 5944 5945 5946 5947 5947 5948 5949 5950 5951 5953 5954 5955 5956 5957 5958 5959 5960 5961 5963 5964 5965 5966 5966 5967 5968 5968 5968 5969 5969 5969 5969 5969 5969 5969 5970 5970 5970 5970
5900 5902 5904 5905 5907 5909 5911 5913 5915 5917 5919 5920 5922 5923 5925 5927 5929 5931 5933 5935 5936 5938 5939 5941 5942 5943 5944 5945 5946 5947 5948 5949 5950 5951 5952 5953 5954 5956 5957 5958 5959 5960 5961 5962 5963 5964 5965 5966 5966 5967 5968 5968 5968 5968 5969 5969 5969 5969 5969 5970 5970 5970 5970
5899 5901 5903 5904 5906 5907 5910 5912 5914 5916 5917 5919 5921 5922 5924 5926 5928 5930 5932 5934 5935 5937 5938 5940 5942 5943 5944 5945 5946 5947 5948 5949 5950 5951 5952 5953 5954 5955 5956 5957 5958 5959 5960 5961 5962 5963 5964 5965 5965 5966 5967 5967 5968 5968 5968 5968 5969 5969 5969 5970 5970 5970 5970
5897 5899 5901 5902 5904 5906 5908 5910 5912 5914 5916 5918 5919 5921 5923 5924 5926 5928 5930 5932 5934 5936 5938 5939 5941 5942 5943 5945 5946 5947 5948 5949 5950 5951 5951 5953 5954 5955 5955 5956 5957 5958 5958 5960 5961 5962 5963 5964 5964 5965 5966 5966 5967 5967 5968 5968 5968 5969 5969 5969 5970 5970 5970
5894 5896 5898 5899 5901 5904 5906 5909 5911 5912 5914 5916 5918 5919 5921 5922 5924 5926 5928 5930 5933 5934 5936 5938 5940 5941 5942 5944 5945 5946 5947 5948 5949 5951 5951 5952 5953 5954 5954 5955 5956 5957 5958 5959 5960 5961 5962 5963 5963 5964 5965 5966 5966 5966 5967 5967 5968 5968 5969 5969 5969 5970 5970
5892 5894 5895 5896 5898 5901 5904 5906 5909 5910 5912 5914 5916 5918 5919 5921 5923 5925 5927 5929 5931 5933 5935 5937 5939 5940 5941 5943 5944 5945 5947 5947 5949 5950 5951 5951 5952 5953 5954 5954 5956 5956 5957 5959 5960 5960 5961 5962 5962 5963 5964 5965 5965 5966 5966 5967 5967 5967 5968 5968 5969 5969 5969
5890 5892 5893 5894 5895 5898 5901 5904 5906 5908 5910 5912 5914 5915 5918 5919 5921 5924 5926 5927 5929 5931 5933 5935 5937 5939 5940 5942 5943 5944 5945 5946 5947 5949 5950 5951 5952 5952 5953 5954 5955 5956 5957 5958 5959 5960 5961 5961 5962 5963 5964 5964 5965 5965 5966 5966 5966 5967 5967 5968 5968 5968 5969
5889 5891 5892 5893 5894 5896 5899 5901 5903 5905 5907 5910 5912 5914 5916 5918 5919 5922 5924 5925 5927 5929 5931 5933 5935 5937 5939 5940 5942 5943 5944 5945 5946 5947 5949 5950 5950 5951 5952 5953 5954 5955 5956 5957 5958 5959 5960 5960 5961 5962 5963 5963 5964 5965 5965 5965 5966 5966 5967 5967 5967 5968 5968
5887 5889 5891 5892 5894 5896 5897 5899 5900 5902 5905 5908 5910 5912 5915 5916 5918 5920 5921 5923 5925 5927 5929 5931 5933 5935 5937 5939 5940 5942 5943 5944 5945 5946 5947 5948 5949 5950 5951 5952 5953 5954 5955 5956 5957 5958 5959 5959 5960 5960 5961 5962 5963 5963 5964 5964 5965 5966 5966 5966 5966 5966 5967
5886 5888 5890 5892 5893 5895 5895 5896 5898 5900 5903 5905 5908 5910 5913 5914 5916 5919 5920 5921 5923 5926 5927 5929 5931 5933 5935 5937 5939 5940 5941 5942 5944 5945 5946 5947 5948 5949 5949 5950 5951 5953 5954 5955 5956 5956 5957 5958 5958 5959 5960 5960 5961 5962 5962 5963 5963 5964 5965 5965 5965 5965 5965
5885 5887 5888 5889 5891 5892 5893 5894 5895 5898 5900 5903 5905 5908 5910 5912 5914 5917 5919 5920 5922 5924 5926 5927 5929 5931 5933 5935 5937 5938 5939 5940 5942 5943 5945 5946 5947 5948 5948 5949 5950 5951 5952 5953 5954 5954 5955 5956 5957 5957 5958 5958 5959 5960 5960 5961 5961 5962 5963 5963 5964 5964 5964
5882 5883 5885 5887 5888 5889 5890 5892 5894 5896 5898 5900 5903 5906 5909 5911 5913 5915 5917 5918 5920 5922 5924 5925 5926 5928 5930 5932 5934 5936 5937 5938 5940 5941 5943 5944 5945 5946 5947 5947 5948 5949 5950 5951 5952 5953 5953 5954 5955 5955 5956 5956 5957 5958 5958 5959 5959 5960 5961 5961 5962 5962 5963
5879 5881 5883 5885 5887 5887 5889 5891 5893 5894 5896 5898 5900 5904 5907 5909 5911 5913 5915 5916 5918 5919 5921 5922 5924 5926 5929 5930 5932 5932 5934 5935 5937 5939 5940 5942 5943 5944 5945 5946 5947 5947 5948 5949 5950 5951 5952 5952 5952 5953 5954 5954 5954 5955 5956 5957 5958 5959 5959 5960 5960 5961 5961
5879 5881 5882 5883 5886 5887 5888 5890 5891 5892 5894 5896 5898 5901 5903 5905 5909 5912 5913 5914 5916 5917 5919 5921 5923 5926 5928 5928 5929 5929 5930 5932 5934 5936 5938 5939 5941 5942 5942 5943 5944 5945 5945 5946 5947 5948 5949 5949 5950 5950 5951 5952 5952 5953 5954 5955 5956 5957 5958 5958 5959 5959 5960
5879 5880 5882 5883 5884 5886 5888 5889 5890 5891 5892 5894 5896 5899 5900 5902 5905 5908 5910 5912 5914 5917 5918 5919 5920 5922 5924 5925 5926 5927 5928 5930 5931 5933 5934 5936 5937 5939 5939 5940 5941 5942 5943 5944 5944 5945 5946 5946 5947 5947 5948 5949 5949 5949 5951 5953 5954 5955 5956 5956 5957 5957 5958
5878 5880 5882 5883 5884 5885 5887 5889 5890 5891 5892 5893 5895 5897 5897 5899 5901 5904 5907 5909 5912 5914 5916 5916 5916 5916 5918 5921 5923 5924 5926 5930 5931 5931 5932 5934 5935 5936 5936 5936 5938 5940 5941 5941 5941 5941 5942 5943 5943 5944 5945 5947 5947 5948 5950 5952 5952 5952 5953 5954 5954 5955 5955
5877 5879 5881 5882 5884 5885 5886 5888 5889 5890 5891 5893 5894 5895 5896 5897 5899 5902 5905 5906 5908 5910 5913 5914 5914 5913 5914 5917 5919 5921 5923 5926 5927 5928 5930 5931 5931 5931 5932 5933 5935 5936 5936 5936 5935 5935 5936 5938 5939 5940 5942 5943 5943 5945 5948 5948 5948 5949 5950 5950 5951 5952 5953
5875 5877 5879 5881 5882 5884 5885 5886 5887 5889 5890 5892 5893 5895 5896 5897 5898 5900 5902 5903 5904 5906 5908 5910 5911 5910 5911 5914 5916 5917 5919 5921 5921 5922 5924 5925 5925 5927 5929 5930 5931 5932 5932 5932 5932 5931 5932 5934 5936 5938 5939 5939 5939 5941 5943 5944 5944 5945 5947 5947 5948 5949 5949
5874 5875 5877 5879 5881 5882 5883 5884 5886 5887 5888 5890 5892 5893 5894 5895 5896 5897 5898 5899 5901 5902 5904 5906 5907 5907 5908 5910 5912 5913 5915 5916 5916 5917 5918 5919 5920 5922 5924 5926 5927 5928 5929 5929 5930 5929 5930 5931 5933 5934 5935 5935 5936 5938 5939 5940 5940 5941 5943 5944 5944 5945 5946
5872 5873 5875 5877 5878 5879 5880 5882 5883 5885 5886 5888 5889 5891 5892 5893 5893 5894 5895 5896 5897 5899 5900 5902 5903 5903 5904 5906 5908 5909 5911 5911 5912 5913 5914 5915 5915 5917 5919 5921 5922 5924 5925 5926 5927 5927 5927 5928 5929 5930 5931 5932 5933 5935 5936 5936 5937 5938 5939 5939 5940 5941 5942
5870 5872 5873 5875 5876 5877 5878 5880 5881 5882 5884 5885 5886 5888 5889 5890 5891 5892 5892 5893 5895 5896 5897 5897 5898 5899 5899 5901 5903 5905 5906 5907 5907 5908 5910 5911 5912 5913 5915 5917 5918 5920 5922 5923 5923 5923 5924 5925 5925 5926 5927 5927 5929 5931 5932 5932 5933 5934 5935 5935 5936 5936 5937
5868 5869 5871 5873 5875 5876 5877 5878 5879 5880 5882 5883 5884 5885 5886 5887 5888 5889 5890 5891 5893 5894 5894 5894 5895 5895 5895 5896 5898 5899 5900 5902 5903 5904 5905 5907 5909 5910 5912 5913 5914 5916 5918 5920 5920 5921 5921 5922 5922 5923 5924 5924 5925 5926 5928 5928 5929 5929 5930 5930 5931 5932 5932
5865 5867 5868 5870 5872 5874 5875 5876 5877 5879 5880 5881 5882 5883 5884 5885 5886 5887 5888 5889 5889 5890 5891 5891 5892 5892 5893 5894 5894 5895 5895 5896 5898 5900 5901 5903 5905 5905 5907 5909 5910 5912 5914 5916 5917 5917 5918 5919 5919 5919 5920 5921 5920 5921 5922 5923 5924 5924 5925 5926 5926 5927 5928
5862 5863 5865 5867 5868 5870 5872 5873 5875 5876 5878 5879 5880 5881 5881 5882 5883 5883 5885 5886 5886 5886 5886 5888 5888 5889 5890 5891 5892 5892 5891 5891 5893 5895 5897 5899 5900 5901 5903 5905 5907 5908 5910 5911 5912 5913 5914 5915 5916 5916 5916 5916 5916 5916 5917 5918 5919 5920 5920 5922 5922 5923 5924
5858 5859 5861 5863 5865 5866 5868 5869 5871 5873 5875 5876 5877 5878 5878 5879 5880 5880 5881 5882 5882 5882 5882 5883 5885 5885 5886 5887 5888 5889 5889 5889 5890 5892 5894 5895 5895 5897 5899 5900 5902 5904 5906 5907 5908 5909 5909 5910 5911 5911 5911 5911 5913 5914 5913 5914 5915 5916 5917 5918 5919 5919 5920
5854 5855 5856 5858 5860 5862 5864 5865 5867 5868 5870 5872 5873 5874 5875 5876 5877 5877 5878 5878 5878 5879 5879 5880 5881 5882 5883 5883 5884 5885 5885 5886 5887 5888 5890 5891 5892 5893 5894 5895 5897 5899 5901 5902 5903 5903 5904 5905 5906 5906 5905 5906 5909 5910 5909 5910 5911 5912 5913 5914 5914 5915 5916
5849 5851 5852 5854 5856 5858 5860 5862 5863 5864 5866 5867 5869 5870 5871 5872 5873 5874 5875 5875 5875 5876 5876 5877 5878 5879 5879 5879 5880 5881 5881 5882 5884 5885 5886 5887 5888 5889 5890 5891 5892 5894 5895 5897 5897 5898 5899 5900 5901 5902 5901 5901 5903 5904 5905 5905 5906 5907 5908 5909 5910 5910 5911
5846 5847 5849 5851 5853 5854 5856 5857 5859 5860 5862 5863 5865 5866 5867 5869 5870 5871 5871 5872 5872 5872 5873 5873 5874 5875 5876 5876 5877 5878 5879 5880 5880 5881 5882 5883 5884 5885 5886 5887 5888 5889 5890 5891 5892 5893 5894 5896 5896 5897 5897 5896 5897 5899 5900 5900 5900 5902 5903 5904 5905 5905 5906
5842 5843 5845 5847 5849 5850 5852 5853 5854 5856 5857 5859 5860 5861 5863 5864 5865 5867 5867 5868 5869 5869 5869 5870 5871 5871 5872 5873 5874 5875 5876 5877 5877 5878 5879 5879 5880 5881 5882 5882 5883 5884 5885 5886 5887 5889 5890 5891 5891 5892 5892 5892 5892 5892 5894 5895 5895 5896 5897 5898 5899 5900 5900
5838 5840 5842 5844 5846 5847 5848 5849 5851 5852 5853 5854 5855 5857 5858 5860 5861 5862 5863 5864 5865 5866 5866 5867 5868 5868 5869 5870 5871 5872 5872 5873 5874 5875 5876 5876 5877 5878 5878 5879 5880 5880 5881 5882 5883 5885 5886 5886 5887 5887 5888 5888 5888 5888 5889 5890 5890 5890 5891 5893 5894 5894 5895
5835 5837 5838 5840 5842 5843 5844 5845 5846 5848 5849 5850 5851 5852 5854 5855 5856 5858 5859 5860 5861 5863 5863 5864 5865 5865 5866 5867 5868 5868 5869 5869 5870 5871 5872 5873 5874 5875 5875 5876 5877 5877 5878 5879 5880 5881 5882 5883 5883 5884 5885 5885 5885 5886 5887 5887 5886 5887 5888 5889 5890 5890 5890
5831 5833 5834 5835 5837 5838 5839 5841 5842 5844 5845 5846 5848 5849 5850 5851 5852 5853 5855 5856 5857 5858 5859 5861 5861 5862 5862 5863 5864 5864 5865 5865 5866 5867 5869 5870 5871 5871 5872 5873 5873 5874 5874 5875 5876 5877 5878 5879 5880 5881 5881 5881 5881 5883 5884 5883 5883 5884 5885 5885 5886 5886 5887
5827 5829 5830 5831 5832 5833 5835 5836 5838 5839 5841 5842 5844 5845 5846 5847 5848 5848 5849 5851 5852 5853 5855 5856 5857 5858 5858 5859 5860 5860 5861 5861 5862 5863 5865 5866 5867 5867 5868 5869 5870 5870 5871 5872 5873 5874 5874 5875 5876 5877 5877 5877 5878 5879 5880 5880 5880 5880 5880 5881 5882 5882 5883
5824 5825 5826 5827 5828 5829 5830 5831 5833 5834 5836 5838 5839 5840 5841 5842 5843 5844 5844 5845 5847 5848 5849 5851 5852 5854 5854 5855 5856 5856 5856 5857 5857 5858 5860 5861 5862 5863 5864 5865 5866 5866 5867 5868 5869 5870 5871 5871 5872 5873 5874 5873 5874 5874 5875 5876 5877 5877 5877 5877 5878 5878 5878
5820 5821 5822 5823 5824 5825 5826 5827 5828 5829 5830 5832 5834 5835 5836 5837 5838 5839 5840 5841 5842 5843 5844 5846 5847 5849 5850 5851 5852 5852 5853 5853 5853 5853 5854 5855 5856 5858 5859 5860 5861 5861 5862 5863 5864 5865 5866 5867 5867 5868 5869 5869 5870 5870 5870 5871 5873 5873 5873 5873 5873 5874 5874
5816 5817 5818 5819 5820 5821 5823 5824 5824 5825 5826 5827 5828 5830 5831 5833 5834 5835 5836 5837 5837 5838 5839 5841 5842 5844 5845 5846 5847 5848 5849 5849 5849 5849 5850 5850 5851 5852 5853 5854 5855 5856 5856 5857 5858 5859 5861 5861 5862 5863 5864 5864 5865 5865 5865 5866 5867 5868 5868 5868 5868 5868 5869